MENU

POPULAR MANGA

Mob Psycho 100 CHAPTER LIST
  • Mob Psycho 100

    Alternative : モブサイコ100 (Japanese); 灵能百分百 (Chinese); One Hundred Mob Psycho; OneHundred MobPsycho; Mob 100 (English)
  • Author(s) : One,
  • Status : Ongoing
  • Last updated : Jul-31-2017 01:47:06 AM
  • TransGroup :
  • View : 949,254
  • Genres : Action, Comedy, Psychological, School life, Shounen, Slice of life, Supernatural,
  • Rating :
  •   Mangakakalot.com rate : 4.76/ 5 - 54 votes

Mob Psycho 100 summary:

Kageyama Shigeo (a.k.a. "Mob") is a 8th grader with psychic abilities. He could bend spoons and lift objects with his mind from a young age, but he slowly began to withhold from using his abilities in public due to the negative attention he kept receiving. Now, the only thing he wants is to become friends with a girl in his class, Tsubomi. With his psychic "mentor" (who has no psychic powers), he continues his daily life, attempting to realize his purpose in life.
Maybe coming in the next issue
Mob Psycho 100 chapter 101
Mob Psycho 100 chapter 102
Chapter name View Time uploaded
chapter 100.6 7,238 07-31 01:47
chapter 100.5 8,008 07-18 06:47
chapter 100.4 9,028 07-03 04:50
chapter 100.2 7,302 06-20 11:06
chapter 100.1 9,829 06-09 15:34
chapter 100 : Ch.99.4 9,807 05-31 04:13
chapter 99.9 : Ch.99.3 6,132 05-30 21:23
chapter 99.7 : Ch 99.1 Mob 9,228 05-08 21:16
chapter 99.6 : Ch. 98.12 8,210 04-17 02:15
chapter 99.5 : c.98k 7,706 04-07 04:45
chapter 99.4 : Ch.98.10 7,727 04-01 01:15
chapter 99.3 : ch98.9 7,251 03-26 21:22
chapter 99.2 : Ch.98.8 6,134 03-26 21:22
chapter 99.1 : Ch.98.7 8,036 03-06 01:50
chapter 99 : Ch.98.6 9,671 02-26 23:20
chapter 98.9 : c.98 Omakes 6,997 02-20 02:47
chapter 98.8 : Ch.98.5 7,337 02-13 23:33
chapter 98.7 : Ch.98.4 6,564 02-10 11:17
chapter 98.6 : Ch.98.3 6,657 02-06 01:17
chapter 98.5 : Ch.98.2 6,752 02-06 01:17
chapter 98.3 : Ch.97.13 7,621 01-08 22:16
chapter 98.2 : Ch.97.12 7,754 12-26 00:31
chapter 98.1 : Ch.97.11 7,793 12-19 01:32
chapter 98 : Ch.97.10 13,176 12-18 18:31
chapter 97.9 6,877 12-03 00:52
chapter 97.8 5,729 11-28 11:37
chapter 97.7 4,848 11-19 13:52
chapter 97.6 4,395 11-05 20:37
chapter 97.5 4,282 10-28 22:42
chapter 97.4 4,223 10-22 19:07
chapter 97.3 : [Nerieru-Scans] 4,190 10-22 18:27
chapter 97.2 4,035 10-08 09:11
chapter 97.1 : Dimple is 4,554 10-02 11:11
chapter 96.7 3,499 10-01 17:31
chapter 96.6 3,532 09-10 06:06
chapter 96.5 3,559 09-02 03:37
chapter 96.4 3,655 08-27 15:49
chapter 96.3 3,626 08-04 23:43
chapter 96.2 3,515 07-28 22:43
chapter 96.1 : Peace 3,678 07-22 02:18
chapter 96 3,483 07-22 02:18
chapter 95.4 3,351 07-14 19:53
chapter 95.3 3,324 07-12 14:25
chapter 95.2 3,683 07-02 21:48
chapter 95.1 3,618 06-25 10:52
chapter 94.2 3,822 06-04 16:31
chapter 94.1 : Carried Away 4,142 05-22 23:38
chapter 93.3 3,672 05-22 23:38
chapter 93.2 3,889 05-22 23:38
chapter 93.1 4,219 04-24 00:02
chapter 92.3 3,903 04-09 13:36
chapter 92.2 4,078 04-01 00:34
chapter 91.6 : 90-11 7,193 02-22 03:39
chapter 91.3 5,640 02-20 02:18
chapter 91.2 6,095 02-12 01:25
chapter 91.1 : 90-12 7,852 01-30 07:06
chapter 91 : 90-10 7,420 01-22 06:12
chapter 90.9 v2 5,870 01-22 06:12
chapter 90.9 5,377 01-20 09:29
chapter 90.8 5,417 01-20 09:29
chapter 90.7 4,536 01-20 09:29
chapter 90.6 4,615 01-20 09:29
chapter 90.5 4,604 01-20 09:29
chapter 90.4 4,381 01-20 09:29
chapter 90.3 4,690 01-20 09:29
chapter 90.2 4,844 01-20 09:29
chapter 90 5,684 01-20 09:29
chapter 89.4 3,893 01-20 09:29
chapter 89.3 3,763 01-20 09:29
chapter 89.2 3,960 01-20 09:29
chapter 89.1 3,894 01-20 09:29
chapter 88.3 3,740 01-20 09:29
chapter 88.2 3,954 01-20 09:29
chapter 88 4,066 01-20 09:29
chapter 87.4 3,664 01-20 09:29
chapter 87.3 3,677 01-20 09:29
chapter 87.2 3,637 01-20 09:29
chapter 87.1 3,819 01-20 09:29
chapter 86.2 3,757 01-20 09:29
chapter 86.1 3,806 01-20 09:29
chapter 85.2 4,303 01-20 09:29
chapter 84.2 3,980 01-20 09:29
chapter 84.1 3,652 01-20 09:29
chapter 83.2 3,721 01-20 09:29
chapter 83.1 3,806 01-20 09:29
chapter 82.2 3,792 01-20 09:29
chapter 82 : Clash 4,108 01-20 09:29
chapter 81.2 3,602 01-20 09:29
chapter 81.1 3,846 01-20 09:29
chapter 80.5 3,536 01-20 09:29
chapter 80 : Inner Conflict 4,168 01-20 09:29
chapter 79.2 3,710 01-20 09:29
chapter 79.1 3,972 01-20 09:29
chapter 78.5 : Read Online 3,506 01-20 09:29
chapter 78.2 : Read Online 3,674 01-20 09:29
chapter 78 : Gathering 3,977 01-20 09:29
chapter 77.6 3,403 01-20 09:29
chapter 77.5 3,631 01-20 09:29
chapter 77 : Show It 4,050 01-20 09:29
chapter 76 : Fire 3,976 01-20 09:29
chapter 75 : Even So 3,896 01-20 09:29
chapter 74.4 : Anthology 2 c.6 3,296 01-20 09:29
chapter 74 : Forward 4,121 01-20 09:29
chapter 73.5 : It's There 3,804 01-20 09:29
chapter 73 : True Character 3,982 01-20 09:29
chapter 72 : Finishing Off 3,881 01-20 09:29
chapter 71.5 : Impulsive 3,631 01-20 09:29
chapter 71 : Overhyped 3,869 01-20 09:29
chapter 70 : The Lonely Whitey 3,849 01-20 09:29
chapter 69 : He Doesn't Care 4,015 01-20 09:29
chapter 68 4,023 01-20 09:29
chapter 67.5 4,279 01-20 09:29
chapter 67.3 : Rightness (3) 4,391 01-20 09:29
chapter 67.2 : Rightness (2) 4,202 01-20 09:29
chapter 67.1 : Rightness (1) 4,145 01-20 09:29
chapter 66 : Voice 4,278 01-20 09:29
chapter 65.5 3,689 01-20 09:29
chapter 65.2 3,725 01-20 09:29
chapter 65.1 : Friction 4,160 01-20 09:29
chapter 65 4,341 01-20 09:29
chapter 64.2 3,865 01-20 09:29
chapter 64.1 : World 4,013 01-20 09:29
chapter 63.3 3,926 01-20 09:29
chapter 63.2 : Last Resort (2) 4,088 01-20 09:29
chapter 63.1 : Last Resort 3,931 01-20 09:29
chapter 62 : Morphing 3,965 01-20 09:29
chapter 61.2 3,907 01-20 09:29
chapter 61.1 : Evil Spirit 4,124 01-20 09:29
chapter 60.5 3,616 01-20 09:29
chapter 60 : True Identity 4,079 01-20 09:29
chapter 59 : Big Mouth 3,795 01-20 09:29
chapter 58.5 3,724 01-20 09:29
chapter 58 : Creeping Danger 4,086 01-20 09:29
chapter 57 : Roots 4,138 01-20 09:29
chapter 56 : Solo Mission 4,152 01-20 09:29
chapter 55 : Don't Know 4,254 01-20 09:29
chapter 53 : Urban Legend 4,341 01-20 09:29
chapter 52.5 4,117 01-20 09:29
chapter 51.5 4,486 01-20 09:29
chapter 50 : No Changes 4,625 01-20 09:29
chapter 49 : Putting an End 3,742 01-20 09:29
chapter 48 : Overwhelming 3,289 01-20 09:29
chapter 47 : Rental 3,029 01-20 09:29
chapter 46 : Master 3,111 01-20 09:29
chapter 45 : Leader 2,528 01-20 09:29
chapter 44 : Respect 2,429 01-20 09:29
chapter 43 : Evil Aura 2,510 01-20 09:29
chapter 42 : Phone Call 2,324 01-20 09:29
chapter 41 : Who 2,209 01-20 09:29
chapter 40 : Pyrokinetic 2,290 01-20 09:29
chapter 39 : The Awakened 2,194 01-20 09:29
chapter 37 : Team 2,228 01-20 09:29
chapter 36 : Ways of Usage 2,047 01-20 09:29
chapter 35 : Up Up 2,181 01-20 09:29
chapter 34 : Claw 2,327 01-20 09:29
chapter 33 : Ura vs Ura 2,438 01-20 09:29
chapter 32 : Will to Destroy 2,096 01-20 09:29
chapter 31 : Mature 2,098 01-20 09:29
chapter 30 : Brotherly Love 2,243 01-20 09:29
chapter 28 : Off-Tune 2,071 01-20 09:29
chapter 27 : Discord 1,977 01-20 09:29
chapter 26 : In High Spirits 2,119 01-20 09:29
chapter 25 : O X Relationship 2,304 01-20 09:29
chapter 24 : Hated 2,202 01-20 09:29
chapter 22 : Awakening Lab 2,275 01-20 09:29
chapter 20 : Student Council 2,253 01-20 09:29
chapter 19 : Conclusion 2,309 01-20 09:29
chapter 18 : Unidentifiable 2,374 01-20 09:29
chapter 17.1 : The Fake Pot 2,386 01-20 09:29
chapter 16 : Ochimusha 2,423 01-20 09:29
chapter 14 : Same Kind 2,387 01-20 09:29
chapter 11 : Idiot-Only Event 2,309 01-20 09:28
chapter 10 : The Gifted One 2,310 01-20 09:28
chapter 8 : Break Down 2,685 01-20 09:28
chapter 7 : Sheeple 2,617 01-20 09:28
chapter 6 : The Invitation 2,504 01-20 09:28
chapter 4 : For Oneself 2,822 01-20 09:28
chapter 2 : A Naive Question 4,619 01-20 09:28